Location: Mason Neck State Park
(38.6428°N, 77.1981°W)
Time: 11:35:30
(UTC-04:00)

Daily predictions for brighter satellites

Satellite Brightness Start Highest point End
(mag) Time Altitude Azimuth Time Altitude Azimuth Time Altitude Azimuth
Cosmos 1844 Rocket 4.1 20:13:43 10° NW 20:19:00 42° WSW 20:24:15 10° S
SL-8 Rocket 4.4 20:14:44 10° SSE 20:20:37 44° E 20:26:30 10° NNE
Cosmos 1455 2.3 20:18:47 10° S 20:22:38 89° W 20:26:31 10° N
Cosmos 1371 Rocket 4.2 20:18:55 10° S 20:24:03 52° ESE 20:29:15 10° NNE
Cosmos 1515 Rocket 3.7 20:20:34 10° S 20:24:54 53° E 20:29:16 10° NNE
Envisat 3.0 20:20:08 10° SSE 20:25:10 70° ENE 20:30:14 10° N
USA 186 1.9 20:29:51 10° SE 20:31:54 29° ENE 20:34:02 10° N
Cosmos 2219 Rocket 3.9 20:27:42 10° SW 20:32:56 38° WNW 20:38:12 10° N
Meteor 2-3 Rocket 3.8 20:28:19 10° N 20:33:57 89° W 20:39:39 10° S
Cosmos 1892 4.0 20:33:16 10° NNW 20:36:59 45° W 20:40:39 10° SSW
Cosmos 1328 Rocket 3.9 20:33:13 10° SSW 20:37:37 72° W 20:42:04 10° N
Cosmos 2333 Rocket 3.8 20:33:34 10° SW 20:38:51 40° WNW 20:44:10 10° N
Cosmos 2237 Rocket 2.7 20:36:49 10° SSW 20:42:23 65° WNW 20:48:00 10° NNE
H-2A R/B 3.9 20:41:32 10° E 20:43:18 12° ENE 20:45:04 10° NE
ATLAS 2AS CENTAUR R/B 3.4 20:36:10 10° NW 20:43:50 61° WSW 20:50:49 10° SSE
SJ-6B 3.3 20:40:17 10° S 20:44:14 65° W 20:48:08 10° NNW
Cosmos 2056 Rocket 3.6 20:39:32 10° S 20:44:53 64° ESE 20:50:13 10° NNE
Cosmos 1869 3.4 20:44:32 10° S 20:48:28 57° E 20:52:25 10° NNE
CZ-2D R/B 4.0 20:46:53 10° S 20:50:35 52° W 20:54:20 10° NNW
Cosmos 2278 Rocket 2.6 20:49:20 10° NNW 20:54:58 66° WSW 21:00:34 10° S
Cosmos 2228 Rocket 3.5 20:51:24 10° SSW 20:55:44 67° W 21:00:08 10° N
Cosmos 1470 Rocket 4.0 20:54:46 10° NNW 20:59:10 66° W 21:03:34 10° S
Cosmos 1624 Rocket 4.0 20:55:40 10° SSW 21:00:51 86° WNW 21:06:04 10° NNE
ASTRO E2 3.8 20:58:28 10° WSW 21:01:56 29° S 21:03:50 20° SE
Cosmos 1825 2.2 20:58:39 10° N 21:02:26 85° W 21:06:13 10° S
Cosmos 1190 Rocket 4.1 20:57:14 10° NNW 21:02:28 61° ENE 21:06:38 16° SSE
OAO 3 Rocket 4.2 20:58:48 10° SW 21:02:47 27° SSE 21:04:47 20° ESE
Meteor 2-10 Rocket 3.7 20:58:59 10° S 21:04:40 68° E 21:10:28 10° NNE
CZ-4C R/B 2.5 21:00:48 10° S 21:05:23 37° ESE 21:10:30 10° NE
Cosmos 1151 Rocket 4.0 21:03:06 10° SSW 21:07:14 49° W 21:11:24 10° N
Spot 2 Rocket 3.5 21:02:44 12° SSE 21:07:26 65° ENE 21:12:28 10° N
Cosmos 1939 Rocket 3.0 21:06:09 10° S 21:10:00 70° W 21:13:57 10° NNW
Cosmos 1408 3.4 21:07:26 10° NNW 21:11:03 53° W 21:14:40 10° S
Cosmos 405 Rocket 3.1 21:08:22 15° SSE 21:11:17 43° E 21:15:03 10° NNE
Cosmos 2098 Rocket 2.7 21:08:57 10° S 21:13:19 88° E 21:16:50 10° N
NOSS 3-4 (A) 3.9 21:07:41 10° NNW 21:14:49 77° ENE 21:20:28 20° SE
NOSS 3-4 (C) 3.9 21:07:47 10° NNW 21:14:55 76° ENE 21:20:33 20° SE
ARGOS 4.0 21:13:48 21° ESE 21:16:25 33° ENE 21:21:10 10° N
Cosmos 405 2.9 21:13:34 10° N 21:17:03 68° E 21:18:48 27° SSE
OAO 3 Copernicus 4.4 21:13:12 10° WSW 21:18:09 58° S 21:20:51 26° ESE
Cosmos 1943 Rocket 4.3 21:17:05 10° NNE 21:19:00 12° NE 21:20:55 10° ENE
Hubble Space Telescope 2.7 21:18:47 10° SSW 21:20:37 15° S 21:20:37 15° S
Cosmos 614 Rocket 4.4 21:16:42 10° N 21:21:42 45° ENE 21:24:05 27° ESE
Resurs 01 Rocket 2.2 21:22:13 10° S 21:26:34 56° W 21:30:57 10° NNW
YAOGAN 6 4.2 21:24:40 10° SSW 21:27:58 33° W 21:31:20 10° NNW
Lacrosse 5 3.6 21:25:30 10° NNW 21:29:29 22° NNE 21:32:11 15° ENE
ERS-1 Rocket 3.9 21:29:44 26° E 21:31:07 30° ENE 21:35:27 10° N
Cosmos 1437 Rocket 4.4 21:29:16 10° NNE 21:31:53 20° ENE 21:31:53 20° ENE
SPOT 5 4.4 21:33:15 17° ENE 21:33:28 17° ENE 21:36:19 10° NNE
Cosmos 1821 Rocket 4.4 21:30:22 25° SE 21:33:36 42° E 21:39:26 10° NNE
SL-16 R/B 2.8 21:30:53 10° SW 21:36:26 58° WNW 21:42:03 10° NNE
Cosmos 1727 Rocket 4.0 21:31:16 10° N 21:37:28 86° W 21:42:30 16° S
Cosmos 1707 Rocket 3.4 21:37:18 28° S 21:39:28 70° E 21:43:47 10° NNE
Cosmos 1420 Rocket 3.9 21:37:57 10° S 21:43:13 69° ESE 21:48:32 10° NNE
Cosmos 1862 3.3 21:43:13 10° N 21:47:15 78° W 21:48:34 41° S
Cosmos 407 Rocket 4.1 21:42:59 10° NNW 21:47:56 51° WSW 21:51:12 21° S
MetOp-A 4.1 21:47:19 38° SE 21:49:21 67° ENE 21:54:40 10° N
Cosmos 1869 Rocket 3.6 21:46:27 10° NNW 21:50:47 72° W 21:52:31 35° S
Cosmos 1733 Rocket 3.9 21:53:06 10° N 21:56:38 34° ENE 21:56:38 34° ENE
Cosmos 2344 3.6 21:51:33 10° SSW 21:59:12 86° WNW 22:07:27 10° NNE
Cosmos 1943 3.7 22:03:13 39° E 22:03:13 39° E 22:07:52 10° NE
RESURS DK-1 4.0 22:00:28 10° N 22:03:23 23° NE 22:03:23 23° NE
Cosmos 1603 3.5 21:59:43 17° SSW 22:04:06 77° ESE 22:09:44 10° NNE
Cosmos 1535 Rocket 4.5 22:04:25 40° SSE 22:06:40 65° E 22:12:59 10° NNE
Cosmos 1241 Rocket 4.4 22:03:52 10° NNW 22:10:13 79° ENE 22:12:00 50° SE
Cosmos 2369 Rocket 2.8 22:04:58 10° N 22:10:18 40° ENE 22:10:58 38° ENE
SPOT 1/Viking Rocket 3.9 22:14:28 46° ENE 22:14:36 46° ENE 22:19:34 10° N
Helios 1B rocket 4.1 22:13:47 10° NNE 22:15:40 24° NE 22:15:40 24° NE
SL-08 RB Rocket 3.6 22:19:22 75° SW 22:19:34 78° WSW 22:24:03 10° NNW
ATLAS 5 CENTAUR R/B 3.0 22:15:11 10° NNW 22:20:56 46° NE 22:22:08 41° E
H-2A R/B 1.9 22:21:22 64° SSW 22:22:04 78° WSW 22:27:02 10° NNW
Cosmos 1605 Rocket 4.1 22:24:01 52° E 22:24:18 52° E 22:30:29 10° NNE
Terra 3.2 22:27:36 28° NE 22:27:36 28° NE 22:30:47 10° N
Cosmos 1140 Rocket 4.3 22:23:22 10° NNW 22:28:14 42° WSW 22:29:28 36° SW
DMSP B5D2-2 3.9 22:23:37 10° NNE 22:28:50 75° E 22:28:50 75° E
Cosmos 1934 Rocket 4.0 22:41:52 53° SSW 22:43:17 74° W 22:49:21 10° N
Cosmos 921 Rocket 3.8 22:43:47 49° NW 22:43:47 49° NW 22:47:30 10° N
Cosmos 2242 Rocket 4.3 22:46:07 50° NW 22:46:07 50° NW 22:49:54 10° N
Cosmos 1850 Rocket 4.1 22:40:55 10° NNW 22:45:52 67° W 22:45:52 67° W
CZ-4C R/B 3.8 22:49:13 10° WSW 22:53:53 32° NW 22:59:09 10° NNE
Meteor 1-14 Rocket 4.2 22:48:42 10° NNW 22:54:07 73° W 22:54:07 73° W
Helios 1A 4.3 22:56:13 38° NW 22:56:13 38° NW 22:59:09 10° NNW
Cosmos 1741 Rocket 4.5 22:51:47 10° NNW 22:56:42 55° W 22:56:42 55° W
Cosmos 1461 4.5 22:52:40 10° NNW 22:55:56 34° NNE 22:55:56 34° NNE
Meteor 1-25 Rocket 4.4 22:55:30 10° NNW 23:00:59 67° W 23:00:59 67° W
ATLAS 2A CENTAUR R/B 4.0 22:45:57 10° WSW 23:02:31 45° SSW 23:03:00 44° S
Cosmos 1943 Rocket 2.4 22:58:05 10° NNW 23:02:48 63° N 23:02:48 63° N
SL-19 R/B 4.4 23:04:58 71° WNW 23:04:58 71° WNW 23:10:10 10° NNW
USA 267 4.0 22:59:13 10° NE 23:03:05 38° ENE 23:03:05 38° ENE
ERS-1 Rocket 4.4 23:09:44 29° W 23:09:48 29° W 23:14:10 10° NW
SPOT 5 4.1 23:12:29 34° WNW 23:12:29 34° WNW 23:15:27 10° NNW
Lacrosse 5 2.8 23:07:52 10° NW 23:11:23 45° NW 23:11:23 45° NW
Cosmos 2100 Rocket 4.5 23:30:48 54° NNE 23:30:48 54° NNE 23:35:43 10° NNE
CZ-2C R/B 3.8 23:44:40 10° NNE 23:47:57 38° N 23:47:57 38° N
Cosmos 2369 Rocket 3.9 23:49:25 10° NW 23:52:46 24° W 23:52:46 24° W
